Starlink 3804

operational
NORAD ID: 52270 Int'l Des: 2022-041 Owner: SPXS Country: US Constellation: starlink
LEOCIRCULAR

关于 Starlink 3804

正在加载描述...

实时位置

正在加载3D地球...

即将过境

高度历史

Altitude vs Time

uPlot chart will show altitude changes over time

两行轨道根数

1 52270U 22041K 26036.89093681 .00001262 00000-0 97356-4 0 9991
2 52270 53.2168 251.8990 0001509 83.7731 276.3433 15.08852125209568
Epoch: Feb 5, 2026 • Age: 11 hours

当前状态

高度 544.9 km
速度 7.60 km/s
星下点 51.54°N, 49.87°E
发射日期 Apr 21, 2022
运行时间 3.7 years
类型 internet

技术详情

分类 Payload
质量 297.00 kg
干质量 275.00 kg
总质量 297.00 kg
长度 0.20 m
直径 2.80 m
跨度 9.00 m
形状 Box + pan
制造商 SPXS
平台类型 Starlink
阶段状态 In Orbit
所有者/国家 SPXS/US

大型星座

Loading constellations...